weather.gov     
National Weather Service

Terminal Aerodrome Forecast
NWS Homepage
This page is being discontinued on March 12, 2014.
The same data is available at this site. Please update your bookmarks.
Thank you, and we apologize for the inconvenience.
Please send an email to SR-SRH.Webmaster@noaa.gov with any concerns.


Current Version
Previous Version:    01  02  03  04  05  06  07  08  09  10  11  12  13  14  15  16  17  18  19  20  21  22  23  24  25  
[Printable]
851
FTAK31 PAFA 191139
TAFAFA
TAF
PAFA 191139Z 1912/2018 03003KT P6SM FEW090 BKN120
     FM200300 29003KT P6SM OVC050
     FM200900 00000KT P6SM -RA OVC035
     FM201200 20002KT 5SM -RA BR OVC025
     FM201600 22008KT 3SM -RA BR OVC015=


851
FTAK31 PAFA 191139
TAFAFA
TAF
PAFA 191139Z 1912/2018 03003KT P6SM FEW090 BKN120
     FM200300 29003KT P6SM OVC050
     FM200900 00000KT P6SM -RA OVC035
     FM201200 20002KT 5SM -RA BR OVC025
     FM201600 22008KT 3SM -RA BR OVC015=




U.S. Dept. of Commerce
NOAA National Weather Service
1325 East West Highway
Silver Spring, MD 20910
E-mail: w-nws.webmaster@noaa.gov
Page last modified: May 16, 2007
NATIONAL WEATHER SERVICE: for Safety, for Work, for Fun - FOR LIFE